User: anonymous   Login
Location: Vinland
(47.7731°N, 122.6974°W)
Time: 16:26:10
(UTC+00:00)
Language:

Tiros 1 - Orbit

View from above orbital plane
View from above orbital plane
View from above satellite
View from above satellite

Ground track
Ground track

The orbit data is extracted from the following two-line orbital elements,

1 00029U 60002B   24105.44581617  .00001009  00000-0  17403-3 0  9995
2 00029  48.3781 190.6105 0022664  94.4441 265.9061 14.76169477424744
Epoch (UTC): 14 April 2024 10:41:58
Eccentricity: 0.0022664
inclination: 48.3781°
perigee height: 625 km
apogee height: 657 km
right ascension of ascending node: 190.6105°
argument of perigee: 94.4441°
revolutions per day: 14.76169477
mean anomaly at epoch: 265.9061°
orbit number at epoch: 42474

The dashed part of the orbit path shows where the satellite is in the earth's shadow,  

DLR